Regional Weather Roundup
Issued by NWS Sioux Falls, SD

Home | Current Version | Previous Version | Graphics & Text | Print | Product List | Glossary Off
Versions: 1 2 3 4 5 6 7 8 9 10 11 12 13 14 15 16 17 18 19 20 21 22 23 24 25 26 27 28 29 30 31 32 33 34 35 36 37 38 39 40 41 42 43 44 45 46 47 48 49 50

000
ASUS43 KFSD 231202
RWRFSD

WEATHER ROUNDUP FOR SE SOUTH DAKOTA/SW MINNESOTA/NW IOWA
NATIONAL WEATHER SERVICE SIOUX FALLS SD
700 AM CDT SUN JUL 23 2017

NOTE: "FAIR" INDICATES FEW OR NO CLOUDS BELOW 12,000 FEET WITH NO
SIGNIFICANT WEATHER AND OR OBSTRUCTIONS TO VISIBILITY.


SDZ038>040-050-052>070-231300-
SOUTHEAST SOUTH DAKOTA

CITY           SKY/WX    TMP DP  RH WIND       PRES   REMARKS
BROOKINGS      CLEAR     61  58  90 N6        29.99R
CHAMBERLAIN    CLEAR     66  59  78 N3        30.03R
6HR MIN TEMP:  61; 6HR MAX TEMP:  76;

HURON          CLEAR     60  59  96 NW8       30.00R
6HR MIN TEMP:  58; 6HR MAX TEMP:  67;

MADISON        FAIR      59  59 100 NW6       29.99S
MITCHELL       CLEAR     64  60  87 N6        30.00R
6HR MIN TEMP:  61; 6HR MAX TEMP:  72;

SIOUX FALLS    PTCLDY    65  60  84 CALM      29.98R
6HR MIN TEMP:  60; 6HR MAX TEMP:  72;

WINNER         FAIR      61  51  70 W5        30.05R
YANKTON        CLEAR     65  60  84 NW5       29.98R
$$

MNZ071-072-080-081-089-090-097-098-231300-
SOUTHWEST MINNESOTA

CITY           SKY/WX    TMP DP  RH WIND       PRES   REMARKS
FAIRMONT       PTCLDY    66  62  87 NW8       29.92R
JACKSON        CLEAR     63  59  88 CALM      29.95R
MARSHALL       CLEAR     62  59  90 NW7       29.96R
6HR MIN TEMP:  61; 6HR MAX TEMP:  72;

MONTEVIDEO     CLEAR     64  57  77 N3        29.94R
PIPESTONE      CLEAR     64  57  77 N5        29.97S
REDWOOD FALLS  CLEAR     63  58  83 NW8       29.92R
WINDOM         CLEAR     64  59  82 NW8       29.94R
WORTHINGTON    CLEAR     63  59  87 NW8       29.96R
$$

IAZ001>003-012>014-020>022-031-032-NEZ013-014-SDZ071-231300-
NORTHWEST IOWA

CITY           SKY/WX    TMP DP  RH WIND       PRES   REMARKS
DENISON        MOCLDY    72  72 100 CALM      29.96S FOG
ESTHERVILLE    CLEAR     62  62 100 W6        29.92R
ORANGE CITY    CLEAR     64  63  94 CALM      29.96S
SHELDON        CLEAR     61  59  94 CALM      29.95R
SIOUX CITY     CLEAR     68  67  96 N6        29.95R
6HR MIN TEMP:  64; 6HR MAX TEMP:  68;

SPENCER        CLEAR     64  61  90 W6        29.95R
6HR MIN TEMP:  63; 6HR MAX TEMP:  67;

STORM LAKE     CLEAR     68  66  94 NW7       29.95S
$$

ABBREVIATIONS USED IN REMARKS
   TC - TEMPERATURE IN CELSIUS
  WCI - WIND CHILL INDEX
   HX - HEAT INDEX
  VSB - VISIBILITY





USA.gov is the U.S. government's official web portal to all federal, state and local government web resources and services.